Laramie, WY

10:13 AM MDT on October 01, 2016 (GMT -0600)
Laramie Regional

Weather History for KLAR - July, 2013

Change the Weather History Date:

Friday, July 5, 2013

  Actual Average Record
Temperature  
Mean Temperature 70 °F 63 °F  
Max Temperature 83 °F 79 °F 92 °F (1989)
Min Temperature 57 °F 47 °F 35 °F (1972)
Degree Days  
Heating Degree Days 0 3  
Month to date heating degree days 6 17  
Since 1 June heating degree days 109 258  
Since 1 July heating degree days 6 17  
Cooling Degree Days 5 1  
Month to date cooling degree days 6 5  
Year to date cooling degree days 42 12  
Since 1 June cooling degree days 42 12  
Growing Degree Days 20 (Base 50)    
Moisture  
Dew Point 51 °F    
Average Humidity 57    
Maximum Humidity 86    
Minimum Humidity 28    
Precipitation  
Precipitation 0.03 in 0.04 in 0.61 in (2015)
Month to date precipitation 0.11 0.19  
Year to date precipitation 3.52 5.68  
Sea Level Pressure  
Sea Level Pressure 29.79 in    
Wind  
Wind Speed 10 mph (SSW)    
Max Wind Speed 31 mph    
Max Gust Speed 40 mph    
Visibility 10 miles    
Events Rain , Thunderstorm    
T = Trace of Precipitation, MM = Missing Value Source: NWS Daily Summary

Daily Weather History Graph

Daily Weather History Graph

Search for Another Location

Airport or City:

Trip Planner

Search our weather history database for the weather conditions in past years. The results will help you decide how hot, cold, wet, or windy it might be!

Date:

Astronomy

Jul. 05, 2013 Rise Set
Actual Time 5:35 AM MDT 8:38 PM MDT
Civil Twilight 5:02 AM MDT 9:12 PM MDT
Nautical Twilight 4:19 AM MDT 9:54 PM MDT
Astronomical Twilight 3:29 AM MDT 10:45 PM MDT
Moon 3:37 AM MDT (7/5) 6:35 PM MDT (7/5)
Length of Visible Light 16h 10m
Length of Day
15h 03m
Waning Crescent, 6% of the Moon is Illuminated
Jul 5
Waning Crescent
Jul 8
New
Jul 15
First Quarter
Jul 22
Full
Jul 29
Last Quarter

Hourly Weather History & Observations

Time (MDT) Temp. Dew Point Humidity Pressure Visibility Wind Dir Wind Speed Gust Speed Precip Events Conditions
12:53 AM 60.1 °F 50.0 °F 69% 29.76 in 10.0 mi NE 6.9 mph - N/A   Clear
1:53 AM 60.1 °F 50.0 °F 69% 29.74 in 10.0 mi North 8.1 mph - N/A   Scattered Clouds
2:53 AM 59.0 °F 51.1 °F 75% 29.73 in 10.0 mi North 5.8 mph - 0.00 in Rain Light Rain
3:53 AM 57.9 °F 52.0 °F 81% 29.73 in 10.0 mi NNW 3.5 mph - 0.00 in   Overcast
4:53 AM 57.9 °F 53.1 °F 84% 29.73 in 10.0 mi NNW 5.8 mph - 0.00 in   Overcast
5:53 AM 57.0 °F 54.0 °F 89% 29.73 in 10.0 mi South 5.8 mph - 0.00 in Rain Light Rain
6:53 AM 57.0 °F 54.0 °F 89% 29.73 in 10.0 mi South 6.9 mph - 0.00 in   Scattered Clouds
7:53 AM 62.1 °F 51.1 °F 67% 29.72 in 10.0 mi South 9.2 mph - N/A   Clear
8:53 AM 66.0 °F 50.0 °F 56% 29.72 in 10.0 mi South 9.2 mph - N/A   Clear
9:53 AM 73.0 °F 48.0 °F 41% 29.70 in 10.0 mi SSW 6.9 mph - N/A   Clear
10:53 AM 75.9 °F 46.0 °F 35% 29.69 in 10.0 mi Calm Calm - N/A   Partly Cloudy
11:53 AM 80.1 °F 46.9 °F 31% 29.69 in 10.0 mi NW 12.7 mph 25.3 mph N/A   Clear
12:53 PM 79.0 °F 45.0 °F 30% 29.69 in 10.0 mi NW 16.1 mph 24.2 mph N/A   Overcast
1:53 PM 82.0 °F 46.0 °F 28% 29.67 in 10.0 mi NW 19.6 mph 26.5 mph N/A   Partly Cloudy
2:14 PM 82.4 °F 46.4 °F 28% 30.04 in 10.0 mi NW 18.4 mph 28.8 mph N/A Thunderstorm Clear
2:40 PM 73.4 °F 53.6 °F 50% 30.04 in 10.0 mi NNW 17.3 mph 25.3 mph 0.01 in Thunderstorm Partly Cloudy
2:53 PM 73.9 °F 50.0 °F 43% 29.68 in 10.0 mi NNW 17.3 mph 25.3 mph 0.01 in Thunderstorm Partly Cloudy
3:43 PM 62.6 °F 48.2 °F 59% 30.08 in 10.0 mi South 19.6 mph 26.5 mph 0.00 in Thunderstorm Overcast
3:53 PM 63.0 °F 48.9 °F 60% 29.78 in 10.0 mi South 15.0 mph - 0.00 in Thunderstorm Overcast
4:20 PM 60.8 °F 53.6 °F 77% 30.08 in 10.0 mi SE 11.5 mph - 0.00 in Rain Light Rain
4:27 PM 62.6 °F 51.8 °F 68% 30.09 in 10.0 mi SSE 12.7 mph - 0.00 in Rain , Thunderstorm Light Rain
4:53 PM 60.1 °F 54.0 °F 80% 29.80 in 4.0 mi South 11.5 mph - 0.02 in Rain , Thunderstorm Light Rain
5:05 PM 60.8 °F 55.4 °F 82% 30.08 in 9.0 mi SSW 10.4 mph - 0.00 in Rain Light Rain
5:53 PM 66.0 °F 54.0 °F 65% 29.75 in 10.0 mi South 11.5 mph - 0.00 in   Clear
6:53 PM 69.1 °F 54.0 °F 58% 29.71 in 10.0 mi South 11.5 mph - N/A   Clear
7:53 PM 66.9 °F 53.1 °F 61% 29.70 in 10.0 mi South 6.9 mph - N/A   Clear
8:53 PM 61.0 °F 54.0 °F 78% 29.73 in 10.0 mi SE 9.2 mph - N/A   Clear
9:53 PM 57.9 °F 53.1 °F 84% 29.72 in 10.0 mi SSE 8.1 mph - N/A   Clear
10:53 PM 59.0 °F 52.0 °F 78% 29.70 in 10.0 mi South 9.2 mph - N/A   Clear
11:53 PM 57.0 °F 52.0 °F 83% 29.68 in 10.0 mi South 9.2 mph - N/A   Clear